GW5467 Weather Reports


time (UTC)temp
C
wind
direction
speed
KPH
gust
KPH
rain 1hr
cm
rain 24hr
cm
rain mn
cm
humidity
%
barometer
mb
20260503034040 11 239 9.7 11.3 0.00 0.00 0.00 64 1016.7
20260503033537 12 223 9.7 11.3 0.00 0.00 0.00 64 1016.6
20260503033035 13 249 9.7 11.3 0.00 0.00 0.00 63 1017.0
20260503032533 14 216 12.9 14.5 0.00 0.00 0.00 52 1016.7
20260503032031 15 214 9.7 11.3 0.00 0.00 0.00 46 1017.0
20260503031528 15 286 6.4 6.4 0.00 0.00 0.00 44 1017.0
20260503031025 13 295 8.0 11.3 0.00 0.00 0.00 45 1016.6
20260503030521 13 65 0.0 0.0 0.00 0.00 0.00 44 1016.4
20260503030019 13 345 3.2 3.2 0.00 0.00 0.00 44 1016.5
20260503025515 14 329 4.8 4.8 0.00 0.00 0.00 41 1016.5
20260503025013 13 74 1.6 1.6 0.00 0.00 0.00 42 1016.5
20260503024509 13 98 1.6 1.6 0.00 0.00 0.00 42 1016.1
20260503024006 13 128 1.6 1.6 0.00 0.00 0.00 42 1016.1
20260503023503 15 116 0.0 0.0 0.00 0.00 0.00 41 1016.2
20260503023000 15 74 3.2 3.2 0.00 0.00 0.00 40 1016.0
20260503022455 15 89 1.6 1.6 0.00 0.00 0.00 40 1016.1
20260503021951 15 73 1.6 1.6 0.00 0.00 0.00 40 1016.0
20260503021447 15 73 3.2 3.2 0.00 0.00 0.00 39 1016.0
20260503020945 15 103 0.0 0.0 0.00 0.00 0.00 39 1015.9
20260503020442 16 101 1.6 1.6 0.00 0.00 0.00 39 1015.9
20260503015939 16 97 1.6 1.6 0.00 0.00 0.00 39 1016.0
20260503015436 16 88 3.2 3.2 0.00 0.00 0.00 38 1016.0
20260503014932 16 94 1.6 3.2 0.00 0.00 0.00 38 1016.0
20260503014429 17 84 1.6 3.2 0.00 0.00 0.00 38 1016.0
20260503013927 17 8 1.6 3.2 0.00 0.00 0.00 37 1016.0
20260503013424 17 115 0.0 0.0 0.00 0.00 0.00 36 1016.1
20260503012921 17 61 1.6 3.2 0.00 0.00 0.00 36 1015.9
20260503012419 17 129 0.0 0.0 0.00 0.00 0.00 36 1016.0
20260503011915 17 180 1.6 3.2 0.00 0.00 0.00 35 1016.0
20260503011412 17 188 1.6 1.6 0.00 0.00 0.00 37 1016.1
20260503010909 18 248 1.6 1.6 0.00 0.00 0.00 36 1016.0
20260503010405 18 209 1.6 3.2 0.00 0.00 0.00 36 1016.0
20260503005902 18 140 4.8 4.8 0.00 0.00 0.00 35 1016.1
20260503005400 18 6 3.2 4.8 0.00 0.00 0.00 34 1016.3
20260503004856 19 53 3.2 3.2 0.00 0.00 0.00 33 1016.4
20260503004353 18 338 0.0 1.6 0.00 0.00 0.00 34 1016.3
20260503003851 18 45 0.0 0.0 0.00 0.00 0.00 35 1016.4
20260503003347 18 45 0.0 1.6 0.00 0.00 0.00 35 1016.3
20260503002844 18 282 1.6 1.6 0.00 0.00 0.00 35 1016.4
20260503002342 18 290 3.2 3.2 0.00 0.00 0.00 36 1016.5
20260503001838 17 24 0.0 0.0 0.00 0.00 0.00 37 1016.6
20260503001334 18 236 0.0 1.6 0.00 0.00 0.00 36 1016.5
20260503000832 18 243 3.2 3.2 0.00 0.00 0.00 37 1016.7
20260503000329 18 343 3.2 3.2 0.00 0.00 0.00 36 1016.5
20260502235826 17 6 6.4 6.4 0.00 0.00 0.00 37 1016.6
20260502235323 17 7 4.8 6.4 0.00 0.00 0.00 36 1016.9
20260502234820 17 337 6.4 6.4 0.00 0.00 0.00 36 1016.7
20260502234317 18 348 4.8 6.4 0.00 0.00 0.00 36 1016.7
20260502233814 18 22 6.4 6.4 0.00 0.00 0.00 36 1016.7
20260502233310 18 68 3.2 4.8 0.00 0.00 0.00 37 1017.2
20260502232807 18 49 1.6 1.6 0.00 0.00 0.00 35 1017.0
20260502232304 18 217 3.2 4.8 0.00 0.00 0.00 37 1017.1
20260502231800 18 128 6.4 6.4 0.00 0.00 0.00 36 1017.1
20260502231258 18 181 6.4 6.4 0.00 0.00 0.00 36 1017.2
20260502230756 18 196 1.6 1.6 0.00 0.00 0.00 37 1017.3
20260502230254 18 149 3.2 4.8 0.00 0.00 0.00 36 1017.7
20260502225750 18 232 3.2 3.2 0.00 0.00 0.00 35 1017.3
20260502225247 18 342 1.6 3.2 0.00 0.00 0.00 36 1017.6
20260502224743 18 334 3.2 4.8 0.00 0.00 0.00 37 1017.5
20260502224240 18 2 3.2 3.2 0.00 0.00 0.00 37 1017.6
20260502223737 18 1 3.2 4.8 0.00 0.00 0.00 37 1017.7
20260502223235 17 72 3.2 4.8 0.00 0.00 0.00 37 1017.6
20260502222733 17 40 8.0 9.7 0.00 0.00 0.00 37 1017.7
20260502222229 17 27 4.8 4.8 0.00 0.00 0.00 38 1017.8
20260502221725 17 123 4.8 4.8 0.00 0.00 0.00 39 1017.7
20260502221222 17 65 4.8 6.4 0.00 0.00 0.00 38 1018.0
20260502220718 17 4 6.4 6.4 0.00 0.00 0.00 39 1018.2
20260502220215 17 45 1.6 1.6 0.00 0.00 0.00 38 1018.2
20260502215712 17 141 4.8 4.8 0.00 0.00 0.00 38 1018.2
20260502215209 17 55 1.6 1.6 0.00 0.00 0.00 37 1018.3
20260502214706 18 103 3.2 3.2 0.00 0.00 0.00 37 1018.2
20260502214203 17 342 3.2 4.8 0.00 0.00 0.00 38 1018.6
20260502213700 17 20 3.2 3.2 0.00 0.00 0.00 38 1018.5
20260502213157 16 110 0.0 0.0 0.00 0.00 0.00 39 1018.4
20260502212656 17 104 4.8 4.8 0.00 0.00 0.00 39 1018.7
20260502212154 17 243 0.0 0.0 0.00 0.00 0.00 40 1018.6
20260502211649 17 210 0.0 1.6 0.00 0.00 0.00 39 1018.6
20260502211147 17 273 1.6 1.6 0.00 0.00 0.00 39 1018.6
20260502210644 16 146 3.2 3.2 0.00 0.00 0.00 40 1019.0
20260502210141 17 143 4.8 4.8 0.00 0.00 0.00 40 1018.8
20260502205637 17 206 3.2 3.2 0.00 0.00 0.00 41 1019.0
20260502205134 16 163 6.4 6.4 0.00 0.00 0.00 41 1019.0
20260502204631 16 176 3.2 3.2 0.00 0.00 0.00 41 1019.0
20260502204129 16 130 3.2 4.8 0.00 0.00 0.00 40 1019.2
20260502203626 17 93 4.8 6.4 0.00 0.00 0.00 41 1019.2
20260502203125 17 69 6.4 9.7 0.00 0.00 0.00 40 1019.3
20260502202624 16 279 6.4 6.4 0.00 0.00 0.00 41 1019.0
20260502202123 16 46 6.4 6.4 0.00 0.00 0.00 40 1019.1
20260502201619 17 57 6.4 9.7 0.00 0.00 0.00 39 1019.1
20260502201116 17 79 12.9 14.5 0.00 0.00 0.00 40 1019.1
20260502200611 17 350 8.0 9.7 0.00 0.00 0.00 39 1019.1
20260502200109 17 117 3.2 3.2 0.00 0.00 0.00 40 1019.4
20260502195608 17 52 11.3 14.5 0.00 0.00 0.00 39 1019.4
20260502195102 16 98 9.7 11.3 0.00 0.00 0.00 42 1019.3
20260502194600 16 39 9.7 12.9 0.00 0.00 0.00 41 1019.4
20260502194055 16 66 9.7 11.3 0.00 0.00 0.00 42 1019.4
20260502193553 16 82 8.0 11.3 0.00 0.00 0.00 42 1019.7
20260502193050 16 58 6.4 6.4 0.00 0.00 0.00 43 1019.6
20260502192545 15 80 12.9 14.5 0.00 0.00 0.00 43 1019.7
20260502192043 15 76 8.0 11.3 0.00 0.00 0.00 44 1019.9
20260502191540 15 59 6.4 6.4 0.00 0.00 0.00 44 1019.8
20260502191038 16 17 9.7 11.3 0.00 0.00 0.00 43 1019.9
20260502190535 16 286 3.2 3.2 0.00 0.00 0.00 41 1020.2
20260502190032 16 109 0.0 0.0 0.00 0.00 0.00 41 1019.7
20260502185526 16 69 1.6 1.6 0.00 0.00 0.00 41 1019.8
20260502185024 16 20 1.6 1.6 0.00 0.00 0.00 41 1020.1
20260502184519 16 344 3.2 4.8 0.00 0.00 0.00 41 1019.9
20260502184016 16 327 3.2 4.8 0.00 0.00 0.00 40 1020.1
20260502183512 16 217 6.4 6.4 0.00 0.00 0.00 40 1019.9
20260502183008 16 246 3.2 3.2 0.00 0.00 0.00 41 1019.8
20260502182503 17 200 3.2 4.8 0.00 0.00 0.00 42 1019.9
20260502181959 17 253 1.6 3.2 0.00 0.00 0.00 39 1020.1
20260502181457 17 354 6.4 9.7 0.00 0.00 0.00 39 1019.9
20260502180956 16 346 6.4 6.4 0.00 0.00 0.00 40 1019.9
20260502180453 16 303 9.7 12.9 0.00 0.00 0.00 41 1020.1
20260502170412 16 329 8.0 11.3 0.00 0.00 0.00 43 1020.3
20260502163855 15 276 4.8 4.8 0.00 0.00 0.00 43 1020.3
20260502163351 15 19 1.6 3.2 0.00 0.00 0.00 42 1020.2
20260502162849 15 16 6.4 11.3 0.00 0.00 0.00 43 1020.1
20260502162345 16 322 3.2 4.8 0.00 0.00 0.00 43 1020.2
20260502161843 15 332 11.3 14.5 0.00 0.00 0.00 43 1020.1
20260502161338 15 333 11.3 12.9 0.00 0.00 0.00 42 1020.1
20260502160837 16 327 8.0 11.3 0.00 0.00 0.00 42 1020.1
20260502160335 16 293 1.6 1.6 0.00 0.00 0.00 42 1020.2
20260502152310 15 50 4.8 4.8 0.00 0.00 0.00 42 1020.4
20260502151808 14 50 9.7 11.3 0.00 0.00 0.00 43 1020.2
20260502151304 14 43 4.8 6.4 0.00 0.00 0.00 43 1020.2
20260502150802 13 61 14.5 16.1 0.00 0.00 0.00 44 1020.2
20260502150258 14 73 4.8 6.4 0.00 0.00 0.00 43 1020.1
20260502130647 10 13 4.8 6.4 0.00 0.00 0.00 51 1019.2
20260502130144 10 28 4.8 4.8 0.00 0.00 0.00 51 1019.2
20260502123630 10 38 14.5 16.1 0.00 0.00 0.00 52 1019.0
20260502123126 10 23 14.5 17.7 0.00 0.00 0.00 51 1018.7
20260502122623 10 26 9.7 12.9 0.00 0.00 0.00 52 1018.6
20260502122120 9 63 12.9 17.7 0.00 0.00 0.00 52 1018.8
20260502121618 9 51 14.5 17.7 0.00 0.00 0.00 53 1018.7
20260502121115 9 33 14.5 16.1 0.00 0.00 0.00 53 1018.6
20260502120611 9 17 9.7 12.9 0.00 0.00 0.00 52 1018.5
20260502120108 9 27 9.7 11.3 0.00 0.00 0.00 52 1018.6
20260502115607 10 53 6.4 6.4 0.00 0.00 0.00 52 1018.4
20260502115108 9 50 8.0 12.9 0.00 0.00 0.00 52 1018.3
20260502114604 10 63 8.0 11.3 0.00 0.00 0.00 51 1018.3
20260502114101 10 72 16.1 25.7 0.00 0.00 0.00 51 1018.3
20260502113559 10 50 12.9 20.9 0.00 0.00 0.00 51 1018.2
20260502113057 10 23 12.9 14.5 0.00 0.00 0.00 50 1018.2
20260502112555 10 25 16.1 20.9 0.00 0.00 0.00 50 1018.1
20260502112052 10 53 16.1 20.9 0.00 0.00 0.00 49 1018.0
20260502111549 10 30 16.1 20.9 0.00 0.00 0.00 49 1018.1
20260502111047 10 14 20.9 22.5 0.00 0.00 0.00 48 1018.1
20260502110544 10 44 12.9 14.5 0.00 0.00 0.00 48 1017.6
20260502110042 10 40 12.9 14.5 0.00 0.00 0.00 48 1017.5
20260502105539 10 13 11.3 16.1 0.00 0.00 0.00 48 1017.4
20260502105036 10 54 12.9 16.1 0.00 0.00 0.00 47 1017.5
20260502104533 10 69 8.0 11.3 0.00 0.00 0.00 47 1017.5
20260502104031 10 20 9.7 14.5 0.00 0.00 0.00 47 1017.1
20260502103528 11 53 9.7 11.3 0.00 0.00 0.00 46 1017.2
20260502103026 11 40 12.9 14.5 0.00 0.00 0.00 46 1017.2
20260502102522 11 39 11.3 14.5 0.00 0.00 0.00 45 1017.0
20260502102019 11 24 9.7 11.3 0.00 0.00 0.00 45 1016.7
20260502101517 11 41 14.5 17.7 0.00 0.00 0.00 44 1016.9
20260502101015 10 23 14.5 16.1 0.00 0.00 0.00 44 1017.0
20260502100514 10 32 12.9 14.5 0.00 0.00 0.00 45 1016.7
20260502091448 8 9 4.8 4.8 0.00 0.00 0.00 45 1016.7
20260502090945 8 0 3.2 3.2 0.00 0.00 0.00 46 1016.4
20260502090442 8 346 3.2 3.2 0.00 0.00 0.00 45 1016.7
20260502071337 8 335 6.4 6.4 0.00 0.00 0.00 43 1016.1
20260502070835 7 331 4.8 6.4 0.00 0.00 0.00 45 1016.3
20260502070332 7 354 1.6 1.6 0.00 0.00 0.00 46 1016.2
20260502065831 7 353 3.2 3.2 0.00 0.00 0.00 44 1016.0
20260502065329 8 352 3.2 3.2 0.00 0.00 0.00 44 1016.2
20260502064826 8 323 4.8 4.8 0.00 0.00 0.00 42 1016.3
20260502064324 9 326 3.2 4.8 0.00 0.00 0.00 42 1016.1
20260502063821 8 345 6.4 6.4 0.00 0.00 0.00 42 1016.0
20260502063319 8 327 3.2 3.2 0.00 0.00 0.00 42 1016.2
20260502062816 8 346 3.2 4.8 0.00 0.00 0.00 41 1016.0
20260502062313 9 284 3.2 3.2 0.00 0.00 0.00 41 1016.1
20260502061812 9 334 3.2 3.2 0.00 0.00 0.00 40 1016.3
20260502061309 9 338 6.4 6.4 0.00 0.00 0.00 40 1016.2
20260502060805 8 344 6.4 6.4 0.00 0.00 0.00 41 1016.2
20260502060300 9 333 4.8 4.8 0.00 0.00 0.00 40 1016.3
20260502055758 11 304 4.8 4.8 0.00 0.00 0.00 37 1016.2
20260502055256 11 335 8.0 11.3 0.00 0.00 0.00 36 1016.1
20260502054755 8 346 4.8 6.4 0.00 0.00 0.00 40 1016.1
20260502054252 8 306 3.2 3.2 0.00 0.00 0.00 40 1016.1
20260502053750 7 338 3.2 3.2 0.00 0.00 0.00 40 1016.2
20260502053247 7 354 3.2 3.2 0.00 0.00 0.00 40 1016.4
20260502052744 7 358 3.2 3.2 0.00 0.00 0.00 40 1016.1
20260502052243 8 347 8.0 11.3 0.00 0.00 0.00 38 1016.1
20260502051740 8 337 9.7 11.3 0.00 0.00 0.00 38 1016.5
20260502051238 8 339 9.7 11.3 0.00 0.00 0.00 37 1016.1
20260502050734 10 349 6.4 9.7 0.00 0.00 0.00 36 1016.2
20260502050230 10 350 9.7 11.3 0.00 0.00 0.00 35 1016.3
20260502045728 11 2 9.7 11.3 0.00 0.00 0.00 33 1016.2
20260502045225 12 314 11.3 14.5 0.00 0.00 0.00 32 1016.0
20260502044722 12 319 9.7 12.9 0.00 0.00 0.00 32 1016.4
20260502044218 12 323 9.7 12.9 0.00 0.00 0.00 31 1016.1
20260502043715 12 321 9.7 12.9 0.00 0.00 0.00 32 1016.1
20260502043213 12 340 8.0 9.7 0.00 0.00 0.00 31 1016.2
20260502042712 13 338 9.7 11.3 0.00 0.00 0.00 31 1016.1
20260502042209 13 312 8.0 9.7 0.00 0.00 0.00 31 1016.3
20260502041707 14 306 9.7 12.9 0.00 0.00 0.00 30 1016.2
20260502041204 15 316 8.0 11.3 0.00 0.00 0.00 29 1016.2
20260502040701 16 294 14.5 17.7 0.00 0.00 0.00 28 1015.9
20260502040158 16 322 12.9 16.1 0.00 0.00 0.00 28 1016.1
20260502035654 16 283 11.3 16.1 0.00 0.00 0.00 27 1016.0
20260502035151 16 303 12.9 14.5 0.00 0.00 0.00 27 1015.9
20260502034649 16 317 8.0 11.3 0.00 0.00 0.00 27 1015.9